Lexington Weather

Lexington, Massachusetts, USA

49°F
12/8/2022 2:42pm 
  • Lexington Conditions: Clear
  • Temperature: 48.7°F / 9.3°CColder 1.5°F than last hour.
  • Dew Point: 35.4°FDecreased 0.9°Fsince last hour.
  • Relative Humidity: 60%Increased 1.0% since last hour.
  • Wind: Wind from WNW WNW 5 mph, 10-min avg: 4 mph, gust: 9 mph
  • Barometer: 30.07 in Steady
  • Visibility: 10 miles
  • Rain Today: 0.00 in
  •   

Warning: Undefined variable $rc in /homepages/6/d276339138/htdocs/weather/20190804/ssi/nwsProduct.php on line 323

Warning: Undefined variable $rc in /homepages/6/d276339138/htdocs/weather/20190804/ssi/nwsProduct.php on line 325

Warning: Undefined variable $rc in /homepages/6/d276339138/htdocs/weather/20190804/ssi/nwsProduct.php on line 323

Warning: Undefined variable $rc in /homepages/6/d276339138/htdocs/weather/20190804/ssi/nwsProduct.php on line 325

Warning: Undefined variable $rc in /homepages/6/d276339138/htdocs/weather/20190804/ssi/nwsProduct.php on line 323

Warning: Undefined variable $rc in /homepages/6/d276339138/htdocs/weather/20190804/ssi/nwsProduct.php on line 325

Warning: Undefined variable $rc in /homepages/6/d276339138/htdocs/weather/20190804/ssi/nwsProduct.php on line 323

Warning: Undefined variable $rc in /homepages/6/d276339138/htdocs/weather/20190804/ssi/nwsProduct.php on line 325

Warning: Undefined variable $rc in /homepages/6/d276339138/htdocs/weather/20190804/ssi/nwsProduct.php on line 323

Warning: Undefined variable $rc in /homepages/6/d276339138/htdocs/weather/20190804/ssi/nwsProduct.php on line 325

Warning: Undefined variable $rc in /homepages/6/d276339138/htdocs/weather/20190804/ssi/nwsProduct.php on line 323

Warning: Undefined variable $rc in /homepages/6/d276339138/htdocs/weather/20190804/ssi/nwsProduct.php on line 325

Warning: Undefined variable $rc in /homepages/6/d276339138/htdocs/weather/20190804/ssi/nwsProduct.php on line 323

Warning: Undefined variable $rc in /homepages/6/d276339138/htdocs/weather/20190804/ssi/nwsProduct.php on line 325

Regional Weather Roundup
for Boston, MA

        
000
ASUS41 KBOX 040310
RWRBOX

REGIONAL WEATHER ROUNDUP
NATIONAL WEATHER SERVICE BOSTON/NORTON MA
1000 PM EST SAT DEC 03 2022

NOTE:  "FAIR" INDICATES FEW OR NO CLOUDS BELOW 12,000 FEET WITH NO 
SIGNIFICANT WEATHER AND/OR OBSTRUCTIONS TO VISIBILITY.

MAZALL-040400-
EASTERN MASSACHUSETTS
  
CITY           SKY/WX    TMP DP  RH WIND       PRES   REMARKS
BOSTON         MOCLDY    46  31  55 W26G33    29.97R                  
BEVERLY        PTCLDY    44  31  60 NW9       29.94R                  
LAWRENCE       PTCLDY    45  29  53 W13G23    29.96R                  
BEDFORD        PTCLDY    45  30  55 W17G29    29.96R                  
NORWOOD        PTCLDY    47  32  56 NW14G28   29.98R                  
MARSHFIELD       N/A     48  36  61 W17G25    29.94R                  
PLYMOUTH       CLOUDY    51  40  65 W14G28    29.93R                  
TAUNTON          N/A    N/A N/A N/A MISG      29.97R                  
NEW BEDFORD    CLOUDY    51  41  68 NW16G25   29.96R                  
$$

MAZALL-040400-
CAPE COD AND THE ISLANDS
  
CITY           SKY/WX    TMP DP  RH WIND       PRES   REMARKS
FALMOUTH       MOCLDY    54  52  94 NW18G31   29.93R                  
HYANNIS        CLOUDY    54  52  93 W15G23    29.90R                  
CHATHAM        CLOUDY    54  51  90 VRB7G18   29.91S                  
PROVINCETOWN   CLOUDY    50  39  66 W29G40    29.93R                  
NANTUCKET      MOCLDY    57  53  86 W18G28    29.92F                  
MARTHAS VNYRD  MOCLDY    56  50  80 W14G29    29.92S                  
$$
 
MAZALL-040400-
CENTRAL AND WESTERN MASSACHUSETTS
  
CITY           SKY/WX    TMP DP  RH WIND       PRES   REMARKS
WORCESTER      CLEAR     41  28  60 W23G39    29.94R WCI  31          
FITCHBURG      CLEAR     41  26  55 W12G21    29.97R                  
ORANGE         CLEAR     41  25  53 NW12G18   30.01R                  
SPRINGFIELD    PTCLDY    41  28  60 NW15G25   30.02R                  
WESTFIELD      CLEAR     41  29  62 NW10      30.04R                  
NORTH ADAMS    CLOUDY    39  26  59 W10G18    30.06R                  
PITTSFIELD     CLEAR     36  25  64 NW16G29   30.03S WCI  26          
$$
 
RIZALL-040400-
RHODE ISLAND
  
CITY           SKY/WX    TMP DP  RH WIND       PRES   REMARKS
PROVIDENCE     MOCLDY    47  34  60 NW17G32   29.99R                  
NEWPORT        CLOUDY    48  37  65 NW21G30   29.97R                  
BLOCK ISLAND   MOCLDY    50  41  71 NW13G22   29.99R                  
SMITHFIELD     PTCLDY    43  32  65 NW16G24   29.99R                  
WESTERLY       CLEAR     49  38  65 NW15G29   30.00R                  
$$
 
CTZALL-040400-
CONNECTICUT
  
CITY           SKY/WX    TMP DP  RH WIND       PRES   REMARKS
BRADLEY INTL   CLEAR     43  31  62 NW12      30.04R                  
HARTFORD       CLEAR     46  32  58 NW9       30.05R                  
BRIDGEPORT     CLEAR     46  29  51 NW17G23   30.06R                  
DANBURY        MOCLDY    46  26  45 W9        30.08R                  
GROTON         CLEAR     50  37  61 NW14G24   30.01R                  
NEW HAVEN      CLEAR     50  33  52 NW13G20   30.05R                  
CHESTER        FAIR     N/A N/A N/A N14       30.03R                  
MERIDEN        PTCLDY    47  33  58 NW12      30.04R                  
WILLIMANTIC    CLEAR     44  33  65 NW12      30.03R                  
OXFORD         CLEAR     43  31  62 W9G16     30.05R                  
$$

MEZ002-015-021-024-NHZ003-005-008-011-012-014-VTZ005-008-040400-
NORTHERN NEW ENGLAND
  
CITY           SKY/WX    TMP DP  RH WIND       PRES   REMARKS
PORTLAND ME    PTCLDY    45  32  60 W21G28    29.86R                  
BANGOR ME      CLOUDY    50  45  83 W10G21    29.76R                  
CONCORD NH     MOCLDY    44  30  57 NW12G26   29.93S                  
MANCHESTER NH  MOCLDY    44  30  57 W8G20     29.93R                  
NASHUA NH      CLEAR     43  29  57 W12G17    29.96R                  
PORTSMOUTH NH  PTCLDY    44  31  59 W12       29.89R                  
JAFFREY NH     PTCLDY    41  27  57 VRB7G17   29.95R                  
KEENE NH       CLEAR     42  28  57 W16G23      N/A                   
BURLINGTON VT  CLOUDY    42  24  49 W12G26    29.99R                  
MT. WASHINGTON FOG       18  18 100 W76G92      N/A  VSB 0   WCI -10  
$$

NYZ052-076-040400-
EASTERN NEW YORK
  
CITY           SKY/WX    TMP DP  RH WIND       PRES   REMARKS
ALBANY         MOCLDY    40  26  57 W14G23    30.11R                  
NEW YORK CITY  PTCLDY    48  28  46 NW18G25   30.11R                  
$$
 
ANZALL-040400-
MARINE OBSERVATIONS
  
STATION/POSITION TIME  TEMP    WIND        PRES    VSBY  WAVE
                       AIR SEA DIR/SP/G                  HT/PER
                 (UTC) (F)     (DEG/KT/KT) (MB)    (MI)  (FT/S)
BOSTON BUOY      0250      51  290/ 25/ 31 1014.2R         4/ 4
BUZZARDS BAY     0200   55     250/ 24/ 26 1013.7R
NANTUCKET SOUND  0250   55 49  240/ 17/ 23 1012.8S         3/ 5
MASS BAY-STELLWA 0104   54 50  210/ 16/ 19 1009.3R  1 7/8  6/ 6
ISLE OF SHOALS   0200   50     290/ 31/ 40 1010.1R
S OF BLOCK IS    0256      54                N/A          11/ 9
$$

......................KEY.........................
  SKY/WX - SKY CONDITION/PRESENT WEATHER
  TMP    - TEMPERATURE IN FAHRENHEIT
  DWPT   - DEWPOINT IN FAHRENHEIT
  RH     - RELATIVE HUMIDITY IN PERCENT
  WIND   - DIRECTION AND SPEED IN MPH
  PRES   - MEAN SEA LEVEL PRESSURE IN INCHES OF HG
  WCI    - WIND CHILL INDEX
  VSB    - VISIBILITY IN MILES
  HX     - HEAT INDEX
  TC     - TEMPERATURE IN CELSIUS
  VRB    - VARIABLE WIND DIRECTION
  N/A    - NOT AVAILABLE
  
      

Other recent Regional Weather Roundups

Thu Dec 8, 2:10pm

Thu Dec 8, 1:10pm

Thu Dec 8, 12:10pm

Thu Dec 8, 11:10am

Thu Dec 8, 10:10am

Thu Dec 8, 9:10am

Thu Dec 8, 8:10am

Thu Dec 8, 7:10am

Thu Dec 8, 6:10am

Thu Dec 8, 5:10am

Thu Dec 8, 4:10am

Thu Dec 8, 3:10am

Thu Dec 8, 2:10am

Thu Dec 8, 1:10am

Thu Dec 8, 12:10am

Wed Dec 7, 11:10pm

Wed Dec 7, 10:10pm

Wed Dec 7, 9:10pm

Wed Dec 7, 8:10pm

Wed Dec 7, 7:10pm

Wed Dec 7, 6:10pm

Wed Dec 7, 5:10pm

Wed Dec 7, 4:10pm

Wed Dec 7, 3:10pm

Wed Dec 7, 2:10pm

Wed Dec 7, 1:10pm

Wed Dec 7, 12:10pm

Wed Dec 7, 11:10am

Wed Dec 7, 10:10am

Wed Dec 7, 9:10am

Wed Dec 7, 8:10am

Wed Dec 7, 7:10am

Wed Dec 7, 6:10am

Wed Dec 7, 5:10am

Wed Dec 7, 4:10am

Wed Dec 7, 3:10am

Wed Dec 7, 2:10am

Wed Dec 7, 1:10am

Wed Dec 7, 12:10am

Tue Dec 6, 11:10pm

Tue Dec 6, 10:10pm

Tue Dec 6, 9:10pm

Tue Dec 6, 8:10pm

Tue Dec 6, 7:10pm

Tue Dec 6, 6:10pm

Tue Dec 6, 5:10pm

Tue Dec 6, 4:10pm

Tue Dec 6, 3:10pm

Tue Dec 6, 2:10pm

Tue Dec 6, 1:10pm

Tue Dec 6, 12:10pm

Tue Dec 6, 11:10am

Tue Dec 6, 10:10am

Tue Dec 6, 9:10am

Tue Dec 6, 8:10am

Tue Dec 6, 7:10am

Tue Dec 6, 6:10am

Tue Dec 6, 5:10am

Tue Dec 6, 4:10am

Tue Dec 6, 3:10am

Tue Dec 6, 2:10am

Tue Dec 6, 1:10am

Tue Dec 6, 12:10am

Mon Dec 5, 11:10pm

Mon Dec 5, 10:10pm

Mon Dec 5, 9:10pm

Mon Dec 5, 8:10pm

Mon Dec 5, 7:10pm

Mon Dec 5, 6:10pm

Mon Dec 5, 5:10pm

Mon Dec 5, 4:10pm

Mon Dec 5, 3:10pm

Mon Dec 5, 2:10pm

Mon Dec 5, 1:10pm

Mon Dec 5, 12:10pm

Mon Dec 5, 11:10am

Mon Dec 5, 10:10am

Mon Dec 5, 9:10am

Mon Dec 5, 8:10am

Mon Dec 5, 7:10am

Mon Dec 5, 6:10am

Mon Dec 5, 5:10am

Mon Dec 5, 4:10am

Mon Dec 5, 3:10am

Mon Dec 5, 2:10am

Mon Dec 5, 1:10am

Mon Dec 5, 12:10am

Sun Dec 4, 11:10pm

Sun Dec 4, 10:10pm

Sun Dec 4, 9:10pm

Sun Dec 4, 8:10pm

Sun Dec 4, 7:10pm

Sun Dec 4, 6:10pm

Sun Dec 4, 5:10pm

Sun Dec 4, 4:10pm

Sun Dec 4, 3:10pm

Sun Dec 4, 2:10pm

Sun Dec 4, 1:10pm

Sun Dec 4, 12:10pm

Sun Dec 4, 11:10am

Sun Dec 4, 10:10am

Sun Dec 4, 9:10am

Sun Dec 4, 8:10am

Sun Dec 4, 7:10am

Sun Dec 4, 6:10am

Sun Dec 4, 5:10am

Sun Dec 4, 4:10am

Sun Dec 4, 3:10am

Sun Dec 4, 2:10am

Sun Dec 4, 1:10am

Sun Dec 4, 12:10am

Sat Dec 3, 11:10pm

Sat Dec 3, 9:10pm

Sat Dec 3, 8:10pm

Sat Dec 3, 7:10pm

Sat Dec 3, 6:10pm

Sat Dec 3, 5:10pm

Sat Dec 3, 4:10pm

Sat Dec 3, 3:10pm

Sat Dec 3, 2:10pm

Sat Dec 3, 1:10pm

Sat Dec 3, 12:10pm

Sat Dec 3, 11:10am

Sat Dec 3, 10:10am

Sat Dec 3, 9:10am

Sat Dec 3, 8:10am

Sat Dec 3, 7:10am

Sat Dec 3, 6:10am

Sat Dec 3, 5:10am

Sat Dec 3, 4:10am

Sat Dec 3, 3:10am

Sat Dec 3, 2:10am

Sat Dec 3, 1:10am

Sat Dec 3, 12:10am

Fri Dec 2, 11:10pm

Fri Dec 2, 10:10pm

Fri Dec 2, 9:10pm

Fri Dec 2, 8:10pm

Fri Dec 2, 7:10pm

Fri Dec 2, 6:10pm

Fri Dec 2, 5:10pm

Fri Dec 2, 4:10pm

Fri Dec 2, 3:10pm

Fri Dec 2, 2:10pm

Fri Dec 2, 1:10pm

Fri Dec 2, 12:10pm

Fri Dec 2, 11:10am

Fri Dec 2, 10:10am

Fri Dec 2, 9:10am

Fri Dec 2, 8:10am

Fri Dec 2, 7:10am

Fri Dec 2, 6:10am

Fri Dec 2, 5:10am

Fri Dec 2, 4:10am

Fri Dec 2, 3:10am

Fri Dec 2, 2:10am

Fri Dec 2, 1:10am

Fri Dec 2, 12:10am

Thu Dec 1, 11:10pm

Thu Dec 1, 10:10pm

Thu Dec 1, 9:10pm

Thu Dec 1, 8:10pm

Thu Dec 1, 7:10pm

Thu Dec 1, 6:10pm

Thu Dec 1, 5:10pm

Thu Dec 1, 4:10pm

Thu Dec 1, 3:10pm

Meta data:

ID: b9b7ac21-109e-44e0-b6b5-78bf99056abc
Link: https://api.weather.gov/products/b9b7ac21-109e-44e0-b6b5-78bf99056abc